Location: Novokuznetsk
(53.7500°N, 87.1000°E)
Time: 03:08:36
(UTC+06:00)

ISS - Visible Passes

Search period start: 17 April 2026 00:00
Search period end: 27 April 2026 00:00
Orbit: 415 x 424 km, 51.6° (Epoch: 16 April)

Date Brightness Start Highest point End Pass type
(mag) Time Alt. Az. Time Alt. Az. Time Alt. Az.
21 Apr -1.3 04:03:36 10° S 04:05:35 15° SE 04:07:34 10° ESE visible
22 Apr -1.1 03:17:45 10° SSE 03:18:24 10° SE 03:19:03 10° SE visible
23 Apr -2.2 04:04:16 10° SSW 04:07:09 26° SSE 04:10:02 10° E visible
24 Apr -1.9 03:18:11 15° S 03:19:51 20° SSE 03:22:25 10° E visible
25 Apr -1.6 02:32:24 15° SSE 02:32:35 15° SE 02:34:34 10° ESE visible
25 Apr -3.0 04:05:35 10° SW 04:08:47 42° SSE 04:12:01 10° E visible
26 Apr -2.8 03:19:32 19° SSW 03:21:24 34° SSE 03:24:31 10° E visible
